Location: Fort Wayne
(41.1310°N, 85.1290°W)
Time: 22:39:58
(UTC-04:00)

Meteor 2-10 Rocket - Visible Passes

Search period start: 29 March 2017 00:00
Search period end: 08 April 2017 00:00
Orbit: 735 x 884 km, 81.2° (Epoch: 28 March)

Date Brightness Start Highest point End Pass type
(mag) Time Alt. Az. Time Alt. Az. Time Alt. Az.
29 Mar 6.3 02:21:42 15° N 02:21:42 15° N 02:22:34 10° N visible
30 Mar 6.4 01:57:32 14° NNE 01:57:32 14° NNE 01:58:18 10° NNE visible
31 Mar 6.4 01:33:20 13° NNE 01:33:20 13° NNE 01:33:55 10° NNE visible
31 Mar 6.3 03:14:28 12° NNW 03:14:28 12° NNW 03:15:03 10° NNW visible
01 Apr 6.4 01:09:08 11° NNE 01:09:08 11° NNE 01:09:27 10° NNE visible
01 Apr 6.2 02:50:16 14° NNW 02:50:16 14° NNW 02:51:15 10° NNW visible
02 Apr 6.2 02:26:03 16° NNW 02:26:03 16° NNW 02:27:17 10° N visible
03 Apr 6.1 02:01:50 18° N 02:01:50 18° N 02:03:13 10° N visible
04 Apr 6.1 01:37:36 18° N 01:37:36 18° N 01:39:03 10° N visible
05 Apr 6.1 01:13:21 18° NNE 01:13:21 18° NNE 01:14:48 10° NNE visible
05 Apr 6.4 02:54:28 11° NW 02:54:28 11° NW 02:54:53 10° NNW visible
06 Apr 6.0 00:49:05 18° NNE 00:49:05 18° NNE 00:50:26 10° NNE visible
06 Apr 6.2 02:30:12 14° NNW 02:30:12 14° NNW 02:31:25 10° NNW visible
07 Apr 6.0 00:24:48 16° NNE 00:24:48 16° NNE 00:26:00 10° NNE visible
07 Apr 6.1 02:05:56 17° NNW 02:05:56 17° NNW 02:07:40 10° NNW visible
